Regional Weather Roundup
Issued by NWS Burlington, VT

Home | Current Version | Previous Version | Text Only | Print | Product List | Glossary On
Versions: 1 2 3 4 5 6 7 8 9 10 11 12 13 14 15 16 17 18 19 20 21 22 23 24 25 26 27 28 29 30 31 32 33 34 35 36 37 38 39 40 41 42 43 44 45 46 47 48 49 50
000
ASUS41 KBTV 231230
RWRBTV
VERMONT REGIONAL WEATHER ROUNDUP
NATIONAL WEATHER SERVICE BURLINGTON VT
800 AM EDT WED JUL 23 2014

NOTE: "FAIR" INDICATES FEW OR NO CLOUDS BELOW 12,000 FEET WITH NO
SIGNIFICANT WEATHER AND/OR OBSTRUCTIONS TO VISIBILITY.

* THESE REPORTS ARE NOT UNDER NWS QUALITY CONTROL AND/OR DO NOT
  REPORT WEATHER SUCH AS PRECIPITATION AND FOG.

VTZ001>019-231300-
_____VERMONT_____


CITY           SKY/WX    TMP DP  RH WIND       PRES   REMARKS
BURLINGTON     PTSUNNY   78  68  71 S16G28    29.82F
6HR MIN TEMP:  75; 6HR MAX TEMP:  78;

MONTPELIER     SUNNY     74  68  81 S12       29.91S
6HR MIN TEMP:  70; 6HR MAX TEMP:  74;

MORRISVILLE    SUNNY     76  68  76 SW6       29.85F
6HR MIN TEMP:  63; 6HR MAX TEMP:  76;

ST. JOHNSBURY*   N/A     70  67  90 MISG      29.85S
6HR MIN TEMP:  62; 6HR MAX TEMP:  70;

LYNDONVILLE*   FAIR      74  66  77 S5        29.90S
6HR MIN TEMP:  66; 6HR MAX TEMP:  72;

MIDDLEBURY*    FAIR      77  69  77 S12G20    29.87S
6HR MIN TEMP:  74; 6HR MAX TEMP:  77;

RUTLAND*       MOSUNNY   75  68  78 SW12      29.91S
6HR MIN TEMP:  70; 6HR MAX TEMP:  75;

SPRINGFIELD    SUNNY     74  68  81 CALM      29.91F
6HR MIN TEMP:  64; 6HR MAX TEMP:  74;

HIGHGATE*      FAIR      77  69  76 S9        29.79S
6HR MIN TEMP:  73; 6HR MAX TEMP:  76;

NEWPORT*       CLOUDY   N/A N/A N/A SW8       29.85S
BENNINGTON     PTSUNNY   75  69  81 CALM      29.94S
6HR MIN TEMP:  67; 6HR MAX TEMP:  75;

GALLUP MILLS*    N/A     54 N/A N/A MISG        N/A
UNION VILLAGE*   N/A     73 N/A N/A MISG        N/A
MT. MANSFIELD*   N/A     63 N/A N/A W17G29      N/A

_____LAKE CHAMPLAIN_____


CITY           SKY/WX    TMP DP  RH WIND       PRES   REMARKS
BURTON ISLAND*   N/A     75  70  83 S15         N/A
COLCHESTER RF*   N/A     73  70  88 S23         N/A
DIAMOND ISL*     N/A     75  70  83 S9          N/A

$$

NYZ007-026>031-035-052-083-231300-
_____NORTHERN NEW YORK_____


CITY           SKY/WX    TMP DP  RH WIND       PRES   REMARKS
PLATTSBURGH    SUNNY     75  70  84 S7        29.80F
6HR MIN TEMP:  65; 6HR MAX TEMP:  75;

SARANAC LAKE   SUNNY     72  67  84 SW8       29.87F
6HR MIN TEMP:  59; 6HR MAX TEMP:  72;

MASSENA        TSTM      72  71  97 SW7       29.79R FOG
6HR MIN TEMP:  71; 6HR MAX TEMP:  76; 6HR PCP:  0.34;

OGDENSBURG*    LGT RAIN  75  70  83 SW9G18    29.79S
POTSDAM*       CLOUDY    75  72  88 SW13G20   29.80S
PARISHVILLE*     N/A     75 N/A N/A SW12        N/A
WATERTOWN      LGT RAIN  79  67  66 SW14G24   29.83S
6HR MIN TEMP:  75; 6HR MAX TEMP:  79; 6HR PCP: TRACE;

FT DRUM        MOSUNNY   78  70  76 SW10G18   29.84R
6HR MIN TEMP:  74; 6HR MAX TEMP:  78;

ALBANY         MOSUNNY   76  69  79 S9        29.92R
6HR MIN TEMP:  73; 6HR MAX TEMP:  76;

GLENS FALLS    MOSUNNY   74  69  85 S10       29.90S
6HR MIN TEMP:  71; 6HR MAX TEMP:  75;


$$
NHZ002-005-011-231300-
_____NEW HAMPSHIRE_____


CITY           SKY/WX    TMP DP  RH WIND       PRES   REMARKS
LEBANON        SUNNY     76  68  76 S12       29.89S
6HR MIN TEMP:  66; 6HR MAX TEMP:  76;

KEENE          PTSUNNY   73  61  64 S6        29.94S
6HR MIN TEMP:  66; 6HR MAX TEMP:  73;

MT WASHINGTON  FOG       55  55 100 W40G47      N/A  VSB 0
6HR MIN TEMP:  53; 6HR MAX TEMP:  57;

PLYMOUTH       CLOUDY    66  65  96 CALM      29.89F FOG
6HR MIN TEMP:  62; 6HR MAX TEMP:  65;

WHITEFIELD     SUNNY     73  66  78 CALM      29.88S
6HR MIN TEMP:  60; 6HR MAX TEMP:  73; 6HR PCP: TRACE;


$$

_____REGIONAL QUEBEC LOCATIONS_____


CITY           SKY/WX    TMP DP  RH WIND       PRES   REMARKS
MONTREAL       TSTM      73  70  88 SW16      29.76R
QUEBEC CITY    PTSUNNY   73  66  78 W12       29.70F
SHERBROOKE     PTSUNNY   75  68  78 SW6       29.80F

_____REGIONAL ONTARIO LOCATIONS_____


CITY           SKY/WX    TMP DP  RH WIND       PRES   REMARKS
OTTAWA         LGT RAIN  75  68  78 W13       29.78R

______KEY______
VSB  - VISIBILITY IN MILES
WCI  - WIND CHILL INDEX
HX   - HEAT INDEX
$$



USA.gov is the U.S. government's official web portal to all federal, state and local government web resources and services.